Location: *
(45.9500°N, 9.0833°E)
Time: 00:38:00
(UTC+00:00)

Tiros 1 despin weight - Pass Details

Date: 24 June 2021
Orbit: 593 x 642 km, 48.2° (Epoch: 02 August)

Event Time Altitude Azimuth Distance (km) Brightness Sun altitude
Rises 10:08:52 0° 282° (WNW) 2,829 ? 62.6°
Reaches altitude 10° 10:11:54 10° 260° (W) 1,928 ? 62.9°
Maximum altitude 10:14:33 16° 223° (SW) 1,589 ? 63.2°
Drops below altitude 10° 10:17:12 10° 186° (S) 1,933 ? 63.5°
Sets 10:20:16 0° 164° (SSE) 2,840 ? 63.8°
